Regional Weather Roundup
Issued by NWS

Home | Current Version | Previous Version | Graphics & Text | Print | Product List | Glossary On
Versions: 1 2 3 4 5 6 7 8 9 10 11 12 13 14 15 16 17 18 19 20 21 22 23 24 25 26 27 28 29 30 31 32 33 34 35 36 37 38 39 40 41 42 43 44 45 46 47 48 49 50
000
ASUS43 KOAX 310010
RWRNE

WEATHER ROUNDUP FOR NEBRASKA
NATIONAL WEATHER SERVICE OMAHA NE
700 PM CDT SAT AUG 30 2014

NOTES: SATELLITE DATA IS BEING USED TO AUGMENT CLOUD COVER ABOVE
       12000 FEET.
       "FAIR" INDICATES FEW OR NO CLOUDS BELOW 12,000 FEET WITH NO
       SIGNIFICANT WEATHER AND/OR OBSTRUCTIONS TO VISIBILITY.

  * THESE STATIONS DO NOT REPORT WEATHER SUCH AS RAIN...SNOW OR FOG.

NEZ001>004-019>022-054>056-310100-
NEBRASKA PANHANDLE

CITY           SKY/WX    TMP DP  RH WIND       PRES   REMARKS
SCOTTSBLUFF    PTSUNNY   85  42  22 S23G29    29.77F
6HR MIN TEMP:  83; 6HR MAX TEMP:  93;

ALLIANCE       SUNNY     86  45  23 S25G31    29.77F
6HR MIN TEMP:  80; 6HR MAX TEMP:  89;

CHADRON        MOSUNNY   86  49  27 S12       29.66F
6HR MIN TEMP:  84; 6HR MAX TEMP:  94;

KIMBALL        PTSUNNY   68  55  62 N3        29.89F
SIDNEY         MOSUNNY   87  43  21 S14       29.86S
6HR MIN TEMP:  81; 6HR MAX TEMP:  90;

$$

NEZ057>060-069>072-079>082-310100-
SOUTHWEST NEBRASKA

CITY           SKY/WX    TMP DP  RH WIND       PRES   REMARKS
NORTH PLATTE   SUNNY     83  61  47 SE9       29.81F
6HR MIN TEMP:  79; 6HR MAX TEMP:  85;

IMPERIAL       SUNNY     87  50  27 S14       29.82F
6HR MIN TEMP:  79; 6HR MAX TEMP:  90;

LEXINGTON      SUNNY     83  65  53 SE10      29.83F
MCCOOK         SUNNY     88  55  32 S9        29.82S
6HR MIN TEMP:  80; 6HR MAX TEMP:  92;

OGALLALA       SUNNY     85  52  31 S12G18    29.79F
$$

NEZ005>010-023>029-035>040-094-310100-
NORTH CENTRAL NEBRASKA

CITY           SKY/WX    TMP DP  RH WIND       PRES   REMARKS
VALENTINE      SUNNY     84  62  47 S17G25    29.75F
6HR MIN TEMP:  78; 6HR MAX TEMP:  86;

AINSWORTH      SUNNY     79  63  57 SE14G22   29.79F
BROKEN BOW     SUNNY     81  64  56 S16G23    29.84F
6HR MIN TEMP:  77; 6HR MAX TEMP:  82;

O`NEILL        SUNNY     78  64  62 S15G21    29.83S
ORD            SUNNY     80  65  59 S12       29.83F
6HR MIN TEMP:  74; 6HR MAX TEMP:  81;

THEDFORD       SUNNY     84  60  44 S17       29.80F
$$

NEZ041-046>049-061>064-073>077-083>087-310100-
SOUTH CENTRAL NEBRASKA

CITY           SKY/WX    TMP DP  RH WIND       PRES   REMARKS
GRAND ISLAND   SUNNY     81  66  60 SE8       29.86F
6HR MIN TEMP:  77; 6HR MAX TEMP:  82;

AURORA         SUNNY     79  66  65 SE6       29.86F
HASTINGS       SUNNY     82  62  50 SE9       29.85F
6HR MIN TEMP:  77; 6HR MAX TEMP:  83;

HEBRON         SUNNY     82  64  52 SE6       29.86F
HOLDREGE       SUNNY     82  64  53 SE8       29.84F
KEARNEY *      SUNNY     81  66  61 SE9       29.86S
YORK           SUNNY     79 N/A N/A SE6       29.86F
$$

NEZ011>018-030>034-042>045-310100-
NORTHEAST NEBRASKA

CITY           SKY/WX    TMP DP  RH WIND       PRES   REMARKS
NORFOLK        SUNNY     78  60  53 S9        29.85F
6HR MIN TEMP:  74; 6HR MAX TEMP:  80;

ALBION         SUNNY     77  64  65 SE10      29.86S
BLAIR          SUNNY     79  66  65 E3        29.88S
FREMONT        SUNNY     80  60  50 SE5       29.87F
TEKAMAH        SUNNY     79  64  60 SE3       29.86F
6HR MIN TEMP:  76; 6HR MAX TEMP:  81;

WAYNE          SUNNY     75  67  76 SE8       29.86F
$$

NEZ050>053-065>068-078-088>093-310100-
SOUTHEAST NEBRASKA

CITY           SKY/WX    TMP DP  RH WIND       PRES   REMARKS
LINCOLN        SUNNY     83  65  54 S7        29.86F
6HR MIN TEMP:  81; 6HR MAX TEMP:  87;

OMAHA EPPLEY   SUNNY     80  64  58 SE8       29.86F
6HR MIN TEMP:  73; 6HR MAX TEMP:  81;

BEATRICE       SUNNY     83  65  54 SE5       29.86F
FALLS CITY     CLEAR     83  71  67 E5        29.86S
6HR MIN TEMP:  83; 6HR MAX TEMP:  88;

NEBRASKA CITY  SUNNY     81  64  56 SE5       29.87S
PLATTSMOUTH    SUNNY     79  63  57 CALM      29.87F
$$

NEZ044-045-051>053-067-310100-
OMAHA AREA

CITY           SKY/WX    TMP DP  RH WIND       PRES   REMARKS
OMAHA EPPLEY   SUNNY     80  64  58 SE8       29.86F
6HR MIN TEMP:  73; 6HR MAX TEMP:  81;

BLAIR          SUNNY     79  66  65 E3        29.88S
FREMONT        SUNNY     80  60  50 SE5       29.87F
MILLARD        SUNNY     80  65  59 SE3       29.86S
OFFUTT AFB     SUNNY     79  68  69 E5        29.86F
PLATTSMOUTH    SUNNY     79  63  57 CALM      29.87F
WAHOO          FAIR      80  64  59 SE3       29.86F
$$


USA.gov is the U.S. government's official web portal to all federal, state and local government web resources and services.